Location: Newark
(55.7083°N, 13.1992°E)
Time: 22:22:35
(UTC+00:00)

Transit 4A - Pass Details

Date: 19 February 2020
Orbit: 871 x 973 km, 66.8° (Epoch: 06 April)

Event Time Altitude Azimuth Distance (km) Brightness Sun altitude
Exits shadow 01:19:30 26° 41° (NE) 1,672 9.7 -40.2°
Drops below altitude 10° 01:21:52 10° 43° (NE) 2,531 10.9 -40.0°
Sets 01:24:21 0° 45° (NE) 3,472 11.8 -39.7°
